Springfield, CO

3:19 PM MST on December 07, 2016 (GMT -0700)
Springfield

Weather History for KSPD - March, 2014

Change the Weather History Date:

Wednesday, March 12, 2014

  Actual Average Record
Temperature  
Mean Temperature 37 °F -  
Max Temperature 52 °F 57 °F 77 °F (2005)
Min Temperature 22 °F 27 °F 16 °F (2009)
Degree Days  
Heating Degree Days 28 23  
Month to date heating degree days 332 298  
Since 1 July heating degree days 4329 4304  
Cooling Degree Days 0 0  
Month to date cooling degree days 0 0  
Year to date cooling degree days 0 0  
Moisture  
Dew Point 14 °F    
Average Humidity 51    
Maximum Humidity 84    
Minimum Humidity 18    
Precipitation  
Precipitation 0.00 in 0.04 in 0.03 in (1999)
Month to date precipitation 0.27 0.36  
Year to date precipitation 0.60 1.17  
Sea Level Pressure  
Sea Level Pressure 30.28 in    
Wind  
Wind Speed 10 mph (NW)    
Max Wind Speed 23 mph    
Max Gust Speed 29 mph    
T = Trace of Precipitation, MM = Missing Value Source: NWS Daily Summary

Daily Weather History Graph

Daily Weather History Graph

Search for Another Location

Airport or City:

Trip Planner

Search our weather history database for the weather conditions in past years. The results will help you decide how hot, cold, wet, or windy it might be!

Date:

Astronomy

Mar. 12, 2014 Rise Set
Actual Time 7:05 AM MDT 6:55 PM MDT
Civil Twilight 6:39 AM MDT 7:21 PM MDT
Nautical Twilight 6:09 AM MDT 7:51 PM MDT
Astronomical Twilight 5:39 AM MDT 8:21 PM MDT
Moon 3:31 PM MDT (3/12) 4:34 AM MDT (3/12)
Length of Visible Light 12h 41m
Length of Day
11h 49m
Waxing Gibbous, 86% of the Moon is Illuminated
Mar 12
Waxing Gibbous
Mar 16
Full
Mar 23
Last Quarter
Mar 30
New
Apr 7
First Quarter

Hourly Weather History & Observations

Time (MDT) Temp. Windchill Dew Point Humidity Pressure Visibility Wind Dir Wind Speed Gust Speed Precip Events Conditions
12:56 AM 28.9 °F 16.1 °F 23.0 °F 78% 30.24 in - NNW 19.6 mph 26.5 mph N/A   Unknown
1:56 AM 28.0 °F 16.5 °F 21.9 °F 78% 30.27 in - NNW 15.0 mph - N/A   Unknown
2:56 AM 26.1 °F 13.6 °F 21.0 °F 81% 30.27 in - NW 16.1 mph - N/A   Unknown
3:56 AM 25.0 °F 12.2 °F 19.9 °F 81% 30.28 in - NNW 16.1 mph - N/A   Unknown
4:56 AM 23.0 °F 11.7 °F 18.0 °F 81% 30.32 in - NW 11.5 mph - N/A   Unknown
5:56 AM 21.9 °F 9.8 °F 18.0 °F 85% 30.35 in - NW 12.7 mph - N/A   Unknown
6:56 AM 21.9 °F 9.2 °F 17.1 °F 82% 30.38 in - NW 13.8 mph - N/A   Unknown
7:56 AM 25.0 °F 12.6 °F 18.0 °F 75% 30.38 in - NW 15.0 mph - N/A   Unknown
8:56 AM 33.1 °F 23.0 °F 19.0 °F 56% 30.39 in - NNW 15.0 mph - N/A   Unknown
9:56 AM 36.0 °F 26.7 °F 17.1 °F 46% 30.39 in - NNW 15.0 mph - N/A   Unknown
10:56 AM 39.9 °F 33.4 °F 12.0 °F 32% 30.37 in - NNW 10.4 mph - N/A   Unknown
11:56 AM 42.1 °F 37.1 °F 9.0 °F 26% 30.35 in - NNW 8.1 mph 20.7 mph N/A   Unknown
12:56 PM 46.0 °F 40.6 °F 9.0 °F 22% 30.31 in - NNW 11.5 mph 21.9 mph N/A   Unknown
1:56 PM 46.9 °F - 10.0 °F 22% 30.28 in - WNW 12.7 mph 23.0 mph N/A   Unknown
2:56 PM 48.9 °F - 8.1 °F 19% 30.24 in - NW 8.1 mph - N/A   Unknown
3:56 PM 50.0 °F - 9.0 °F 19% 30.22 in - NW 5.8 mph - N/A   Unknown
4:56 PM 51.1 °F - 10.0 °F 19% 30.21 in - WNW 8.1 mph - N/A   Unknown
5:56 PM 50.0 °F - 10.0 °F 20% 30.20 in - West 3.5 mph - N/A   Unknown
6:56 PM 46.0 °F 44.8 °F 12.9 °F 26% 30.22 in - WNW 3.5 mph - N/A   Unknown
7:56 PM 36.0 °F - 10.9 °F 36% 30.25 in - Calm Calm - N/A   Unknown
8:56 PM 32.0 °F 26.4 °F 12.9 °F 45% 30.25 in - WSW 5.8 mph - N/A   Unknown
9:56 PM 27.0 °F 17.3 °F 12.0 °F 53% 30.25 in - SW 10.4 mph - N/A   Unknown
10:56 PM 30.0 °F 21.1 °F 10.9 °F 45% 30.21 in - SW 10.4 mph - N/A   Unknown
11:56 PM 25.0 °F 18.1 °F 9.0 °F 51% 30.19 in - WSW 5.8 mph - N/A   Unknown